This is the latest recevied weather packets stored in our database for station/object I1SXT-13. If no packets are shown the sender has not sent any weather packets the latest 10 day(s).
| Time | Temp. | Humidity | Pressure | Rain* | Wind** | Luminosity | Snow |
|---|---|---|---|---|---|---|---|
| 1777900165 | 21.11° C | 65% | 1019.8 hPa | 0 mm | - | - | - |
| 1777899868 | 20.56° C | 63% | 1019 hPa | 0 mm | - | - | - |
| 1777899564 | 19.44° C | 66% | 1018.8 hPa | 0 mm | - | - | - |
| 1777899267 | 20° C | 67% | 1019.8 hPa | 0 mm | - | - | - |
| 1777898970 | 20° C | 65% | 1019.4 hPa | 0 mm | - | - | - |
| 1777898666 | 19.44° C | 63% | 1019.4 hPa | 0 mm | - | - | - |
| 1777898369 | 20° C | 64% | 1019.9 hPa | 0 mm | - | - | - |
| 1777898065 | 20° C | 59% | 1020 hPa | 0 mm | - | - | - |
| 1777897767 | 21.11° C | 58% | 1020.3 hPa | 0 mm | - | - | - |
| 1777897463 | 21.11° C | 59% | 1020.2 hPa | 0 mm | - | - | - |
| 1777897166 | 20.56° C | 61% | 1020 hPa | 0 mm | - | - | - |
| 1777896869 | 20° C | 63% | 1020.7 hPa | 0 mm | - | - | - |
| 1777896565 | 18.33° C | 69% | 1020.5 hPa | 0 mm | - | - | - |
| 1777896268 | 18.33° C | 71% | 1020.1 hPa | 0 mm | - | - | - |
| 1777895667 | 19.44° C | 66% | 1020.6 hPa | 0 mm | - | - | - |
| 1777895369 | 20° C | 66% | 1019.9 hPa | 0 mm | - | - | - |
| 1777894464 | 19.44° C | 67% | 1020.4 hPa | 0 mm | - | - | - |
| 1777894167 | 19.44° C | 67% | 1020.3 hPa | 0 mm | - | - | - |
| 1777893566 | 18.89° C | 68% | 1020.5 hPa | 0 mm | - | - | - |
| 1777893269 | 18.89° C | 68% | 1020.1 hPa | 0 mm | - | - | - |
| 1777892964 | 18.33° C | 67% | 1020.1 hPa | 0 mm | - | - | - |
| 1777892667 | 18.33° C | 67% | 1020.3 hPa | 0 mm | - | - | - |
| 1777892370 | 18.33° C | 67% | 1020.3 hPa | 0 mm | - | - | - |
| 1777892066 | 18.33° C | 66% | 1019.9 hPa | 0 mm | - | - | - |
| 1777891769 | 18.89° C | 66% | 1020.1 hPa | 0 mm | - | - | - |
* Rain since midnight (hover to see other rain measurements)
** Current wind speed in m/s (hover to see current wind gust speed)